Regional Weather Roundup
Issued by NWS Charleston, SC

Current Version | Previous Version | Graphics & Text | Print | Product List | Glossary On
Versions: 1 2 3 4 5 6 7 8 9 10 11 12 13 14 15 16 17 18 19 20 21 22 23 24 25 26 27 28 29 30 31 32 33 34 35 36 37 38 39 40 41 42 43 44 45 46 47 48 49 50
000
ASUS42 KCHS 212225
RWRCHS

REGIONAL WEATHER ROUNDUP
NATIONAL WEATHER SERVICE CHARLESTON SC
600 PM EDT THU AUG 21 2014

NOTE: "FAIR" INDICATES FEW OR NO CLOUDS BELOW 12,000 FEET WITH NO
SIGNIFICANT WEATHER AND/OR OBSTRUCTIONS TO VISIBILITY.

NOT ALL STATIONS ARE QUALITY CONTROLLED BY THE NATIONAL
WEATHER SERVICE. USE DATA WITH CAUTION...ESPECIALLY
DEWPOINT OBSERVATIONS.

SCZ027-030-031-034>040-042>050-212300-
...SOUTH CAROLINA...

CITY           SKY/WX    TMP DP  RH WIND       PRES   REMARKS
N CHARLESTON   MOSUNNY   96  73  47 VRB5      30.02S HX 105
WATERFRONT PRK   N/A     93 N/A N/A N8          N/A
FORT JOHNSON   NOT AVBL
MOUNT PLEASANT FAIR      93  72  49 NW6       30.02R HX 100
JOHNS ISLAND   CLEAR     95  75  52 CALM      30.02S HX 107
PINOPOLIS        N/A     97  75  49 N3        29.96F HX 109
MONCKS CORNER    N/A     93  77  59 CALM      30.02F HX 107
SUMMERVILLE    FAIR      95  72  46 CALM      30.03S HX 103
BEAUFORT MCAS  MOSUNNY   96  72  45 E6        30.02S HX 104
BEAUFORT ARPT  FAIR      93  73  52 NE6       30.01S HX 102
HILTON HEAD IS MOSUNNY   90  77  66 SE3       30.03S HX 102
GEORGETOWN     NOT AVBL
WALTERBORO     CLEAR     97  55  24 NW6       30.03S HX  95
ORANGEBURG     SUNNY     96  64  34 VRB7      30.03F HX  98
BARNWELL       FAIR      97  63  32 N8        30.04S HX  98
AIKEN          FAIR      95  68  41 NE3       30.08S HX  99
MANNING        FAIR      95  72  46 CALM      30.02S HX 103
KINGSTREE      NOT AVBL
COLUMBIA       MOSUNNY   96  64  34 CALM      30.03S HX  98
SUMTER         SUNNY     95  67  40 N8        30.02F HX  98
FLORENCE       MOSUNNY   95  63  34 NE8       30.01F HX  96
MYRTLE BEACH   MOSUNNY   90  73  58 SW9       30.02F HX  98
N MYRTLE BEACH PTSUNNY   84  72  67 S5        30.02F

$$

GAZ063-065-086>088-099>101-113>116-118-119-134-136>141-150-212300-
...GEORGIA...

CITY           SKY/WX    TMP DP  RH WIND       PRES   REMARKS
SAVANNAH ARPT  MOSUNNY   96  70  42 NW3       30.02S HX 102
HUNTER AAF     SUNNY     95  71  46 NW8       30.01S HX 103
FORT STEWART   MOSUNNY   98  63  31 NW7       30.02S HX  99
STATESBORO     NOT AVBL
SYLVANIA       CLEAR     97  70  41 N7        30.05R HX 103
CLAXTON        FAIR      97  68  38 NE5       30.04R HX 101
THOMSON        SUNNY     90  76  64 CALM      30.10R HX 102
AUGUSTA-BUSH   MOSUNNY   97  63  32 CALM      30.03R HX  98
AUGUSTA-DANIEL SUNNY     98  65  33 CALM      30.05S HX 101
SWAINSBORO     FAIR      90  72  55 CALM      30.07R HX  96
VIDALIA          N/A     95  70  43 N5        30.06R HX 101
ALMA           SUNNY     97  68  38 NW7       30.04R HX 102
WAYCROSS       SUNNY     99  73  43 N9        30.04R HX 110
JESUP            N/A     99  70  39 N5        30.04R HX 105
BRUNSWICK      SUNNY     97  64  34 N5        30.04R HX  99
SAINT SIMONS   MOSUNNY   92  74  55 SE7       30.03R HX 101

$$

SCZ027-028-034-036>038-045-046-048>050-GAZ119-141-212300-
...LAKE AND SUPPLEMENTAL COASTAL OBSERVATIONS...

STATION/POSITION TIME  TEMP    WIND        PRES    WAVE   SWELL
                       AIR SEA DIR/SP/G            HT/PER HT/PER/DIR
                 (UTC) (F)     (DEG/KT/KT) (MB)    (FT/S) (FT/S/D)
UPR LAKE MARION  NOT AVBL
WINYAH BAY       2200   88      80/  5     1016.0S
LAKE MURRAY      2100   92     130/  3/  6 1016.6S
ACE BASIN NERRS  2200   96     330/  1     1017.0S
FORT PULASKI     2200   92     280/  5/  6 1016.7F
SAPELO ISLAND    2200   96     360/  5     1018.0S

$$

ANZ835-935-AMZ111-154-330-350-352-354-374-450-454-472-212300-
...C-MAN AND BUOY OBSERVATIONS...

STATION/POSITION TIME  TEMP    WIND        PRES    WAVE   SWELL
                       AIR SEA DIR/SP/G            HT/PER HT/PER/DIR
                 (UTC) (F)     (DEG/KT/KT) (MB)    (FT/S) (FT/S/D)
FOLLY BEACH CMAN 2200   87     200/  8/  9 1016.9F
BUOY 41004       2200   84 85  220/  4/  6 1016.3F   2/ 5   2/ 5
BUOY 41008       2200   85 86  160/  6/  8 1016.7F   1/ 8
5E ST. MARYS GA  2200      85                N/A     1/ 9
FRYING PAN BUOY  NOT AVBL
BUOY 41025       2200   82     200/  6/  8 1016.4F   2/ 9   2/ 50/ 9
CAPE LOOKOUT NC  2200   84     210/  6/  9 1016.3F
BUOY 41002       2147   82 83  250/ 10/ 10 1018.6R   2/ 5   2/260/ 5
BUOY 41010       2200   85 87  220/  4/  6 1018.5R   1/ 8   2/120/ 8
BUOY 41012       NOT AVBL
ST AUGUSTINE FL  2200   83     150/  7/  7 1018.3R
CAPERS NEARSHORE 2100   87     220/  8/ 10   N/A
FRIPP NEARSHORE  NOT AVBL


$$


USA.gov is the U.S. government's official web portal to all federal, state and local government web resources and services.